CDT,Max TemperatureF,Mean TemperatureF,Min TemperatureF,Max Dew PointF,MeanDew PointF,Min DewpointF,Max Humidity, Mean Humidity, Min Humidity, Max Sea Level PressureIn, Mean Sea Level PressureIn, Min Sea Level PressureIn, Max VisibilityMiles, Mean VisibilityMiles, Min VisibilityMiles, Max Wind SpeedMPH, Mean Wind SpeedMPH, Max Gust SpeedMPH,PrecipitationIn, CloudCover, Events, WindDirDegrees
2012-10-1,75,60,46,54,42,34,87,56,23,29.97,29.93,29.90,10,10,5,23,6,32,0.00,0,,346
2012-10-2,73,58,42,48,40,30,87,55,31,29.98,29.94,29.87,10,10,7,7,3,,0.00,0,,318
2012-10-3,78,56,35,54,37,30,93,54,17,29.94,29.90,29.84,10,10,7,15,3,24,0.00,0,,180
2012-10-4,64,53,42,45,37,30,87,61,41,30.29,30.16,29.92,10,10,4,24,10,38,0.00,2,,312
2012-10-5,51,42,33,34,28,21,81,63,32,30.31,30.27,30.22,10,10,10,13,4,18,0.00,0,,311
2012-10-6,44,35,26,30,24,21,80,62,46,30.33,30.30,30.27,10,10,10,17,5,23,0.00,3,,323
2012-10-7,55,36,17,36,22,16,93,59,26,30.28,30.17,30.02,10,10,10,15,3,24,0.00,0,,217
2012-10-8,68,54,39,37,32,27,81,50,21,30.02,29.90,29.80,10,10,10,23,13,30,0.00,0,,199
2012-10-9,53,42,28,45,34,21,81,61,35,30.12,29.94,29.80,10,10,10,18,6,29,0.00,0,,304
2012-10-10,60,43,26,36,26,18,86,56,19,30.23,30.14,30.04,10,10,7,13,3,17,0.00,0,,236
2012-10-11,60,50,39,37,32,23,71,50,34,30.36,30.13,30.02,10,10,7,20,11,26,0.00,1,,279
2012-10-12,60,45,30,46,25,12,82,50,15,30.39,30.27,30.02,10,10,7,18,7,24,0.00,2,,119
2012-10-13,73,63,53,66,60,48,94,86,73,29.99,29.78,29.63,10,8,1,18,10,30,0.00,5,,183
2012-10-14,64,55,46,61,47,37,94,74,40,29.97,29.81,29.59,10,8,4,22,11,29,0.00,3,,329
2012-10-15,71,53,35,52,42,32,93,69,35,30.00,29.93,29.80,10,10,5,12,2,,0.00,0,,171
2012-10-16,77,62,48,55,48,45,88,67,34,29.79,29.55,29.44,10,10,10,12,5,18,0.00,0,,214
2012-10-17,62,52,42,55,45,34,88,65,44,29.55,29.45,29.33,10,10,5,23,8,32,0.00,3,,262
2012-10-18,50,46,42,43,37,27,93,74,43,29.52,29.44,29.38,10,8,4,22,12,40,0.00,7,,281
2012-10-19,46,44,42,45,41,39,93,87,87,29.81,29.68,29.52,10,8,2,20,12,31,0.00,8,,309
2012-10-20,62,48,35,50,42,34,93,79,48,29.85,29.80,29.74,10,10,0,9,2,,0.00,2,,169
2012-10-21,78,61,44,64,54,39,88,76,54,29.82,29.79,29.75,10,10,7,13,5,17,0.00,1,,165
2012-10-22,69,62,55,66,61,54,94,90,82,29.84,29.80,29.77,7,5,0,14,3,20,0.00,4,,87
2012-10-23,68,62,57,63,58,55,94,90,78,29.79,29.76,29.69,10,4,0,22,6,25,0.00,5,,202
2012-10-24,73,62,48,72,58,46,100,91,78,29.79,29.75,29.71,10,4,0,15,4,18,0.00,6,,330
2012-10-25,48,42,37,46,37,28,93,87,70,30.30,29.96,29.64,10,8,1,25,15,37,0.00,8,,335
2012-10-26,42,36,30,30,28,27,87,71,57,30.47,30.41,30.30,10,10,10,14,5,21,0.00,6,,316
2012-10-27,44,34,24,34,27,21,87,68,46,30.40,30.34,30.27,10,10,10,6,2,,0.00,2,,311
2012-10-28,50,40,30,36,30,27,87,72,47,30.34,30.29,30.24,10,10,10,12,2,,0.00,3,,166
2012-10-29,55,45,35,34,30,27,81,59,38,30.28,30.22,30.15,10,10,7,14,6,21,0.00,3,,152
2012-10-30,51,40,28,36,30,25,93,69,37,30.16,30.10,30.05,10,10,5,9,2,,0.00,4,,64
2012-10-31,59,44,28,36,30,25,93,67,33,30.07,30.03,29.98,10,9,7,7,1,,0.00,1,,320